Terminal Aerodrome Forecast
Issued by NWS

Home | Current Version | Previous Version | Text Only | Print | Product List | Glossary On
Versions: 1 2 3 4 5 6 7 8 9 10 11 12 13 14 15 16 17 18 19 20 21
840
FTPA31 PHFO 301120
TAFHMK
TAF
PHMK 301120Z 3012/0112 36008KT P6SM VCSH SCT015 BKN040
     FM302000 VRB06G14KT P6SM VCSH SCT015 BKN040
     FM010600 10008KT P6SM VCSH SCT020 BKN045=

USA.gov is the U.S. government's official web portal to all federal, state and local government web resources and services.